一网星座-0017星 (ONEWEB-0017 )

导读

ONEWEB-0017是英国OneWeb公司低轨宽带卫星星座的一颗卫星,于2020年2月6日发射升空。作为OneWeb第一代星座组网卫星,它运行在距地球约1200公里的极地轨道,工作在Ku频段,单星重量约150-200kg。 该卫星通过渐进调姿技术避免对同步轨道卫星的干扰,为全球偏远地区、网络基础设施薄弱区域提供高速宽带互联网接入服务,助力OneWeb构建覆盖全球的低轨卫星通信网络,是英国卫星互联网布局的重要组成节点。

基本信息
目录编号:
45132
目录名称:
ONEWEB-0017
国际标识:
2020-008B
轨道中心:
EARTH
卫星名称:
一网星座-0017星
卫星全名:
一网星座-0017星 (ONEWEB-0017 )
卫星状态:
在轨 (已飞行2409 天)
发射日期:
2020-02-06 UTC
国别 :
英国 (GB)
星等 :
--
该卫星已列入 空间交会检测服务 Space Conjunction Data Service (SCDS) ,当前飞行风险评估等级: 无高风险
轨道信息
数据来源 国际轨道数据 AOE轨道数据
星历时间 2026-09-11T14:48:34+0800
7小时前
查看轨道信息
2026-09-10T06:00:00+0800
1天前
查看轨道信息
半长轴 7599.869km 7599.903km
偏心率 0.0001567 0.0001144
轨道倾角 87.889° 87.889°
近地点辐角 98.893° 84.038°
升交点赤经 19.123° 19.394°
平近点角 261.237° 310.894°
近地点 1220.541km 1220.896km
远地点 1222.923km 1222.636km
周期 109.893分钟 109.893分钟
每日圈数 13.103692 13.103602
详细信息
平衡模式:
三轴稳定
覆盖范围:
全球
运营商:
一网卫星公司
运营商所在国:
英国
制造商(研发单位):
空客防务与航天公司
制造商所在国:
法国大都会
使用方式:
暂无
卫星简介
OneWeb卫星网络由648颗重约125公斤的微型卫星组成,运行在1200公里的轨道上。 每颗卫星都能够提供至少每秒8千兆位的吞吐量,以使用其高吞吐量的Ku频段有效载荷为家庭和移动平台提供互联网接入。该卫星仍在工作。
2D轨道图
3D轨道图
轨道高度分析图
轨道倾角分析图
轨道综合分析图
查看轨道综合分析图
与全量物体交会距离演化趋势
与全量物体交会风险概率演化趋势